Home > Weather > Limassol > Past weeks

Flag for Cyprus Weather for the Past 2 Weeks in Limassol, Cyprus

Now
66 °F

Clear.


Feels Like: 66 °F
Forecast: 54 / 84 °F
Wind: 2 mph from Northwest

Location: Akrotiri

Current Time: May 2, 2016 at 2:53:51 AM

Latest Report: May 2, 2016 at 1:50 AM


Visibility: 10 mi

Pressure: 29.77 "Hg

Humidity: 68%

Dew Point: 55 °F

Location of LimassolLocation

Historic Weather in Limassol — Graph

°F

Limassol Temperature Yesterday

Maximum temperature yesterday: 82 °F (at 11:50 AM)
Minimum temperature yesterday: 66 °F (at 12:50 AM)
Average temperature yesterday: 74 °F

High & Low Weather Summary for the Past Weeks

 TemperatureHumidityPressure
High88 °F (Apr 20, 12:50 PM)100% (Apr 17, 1:50 AM)30.09 "Hg (Apr 17, 1:50 AM)
Low57 °F (Apr 18, 5:50 AM)11% (Apr 20, 11:50 AM)29.62 "Hg (Apr 25, 1:50 AM)
Average69 °F62%29.89 "Hg
* Reported Apr 17 12:50 AM — May 2 12:50 AM, Limassol, Weather by CustomWeather, © 2016

Note: Actual official high and low records may vary slightly from our data, if they occured in-between our weather recording intervals... More about our weather records

Advertising

Limassol Weather History for the Previous 24 Hours

Scroll right to see more
 ConditionsComfort  
Time TempWeatherWind HumidityBarometerVisibility
12:50 AM
Mon, May 2
68 °FClear.1 mph64%29.77 "Hg10 mi
11:50 PM
Sun, May 1
70 °FClear.6 mph60%29.77 "Hg10 mi
10:50 PM68 °FClear.3 mph78%29.77 "Hg10 mi
9:50 PM70 °FClear.7 mph69%29.77 "Hg10 mi
8:50 PM72 °FClear.6 mph69%29.74 "Hg10 mi
7:50 PM73 °FSunny.2 mph69%29.74 "Hg10 mi
6:50 PM77 °FSunny.2 mph44%29.71 "Hg10 mi
5:50 PM81 °FSunny.3 mph37%29.71 "Hg10 mi
4:50 PM81 °FSunny.7 mph34%29.71 "Hg10 mi
3:50 PM81 °FScattered clouds.7 mph39%29.71 "HgN/A
2:50 PM82 °FPassing clouds.22 mph40%29.71 "HgN/A
1:50 PM81 °FPassing clouds.22 mph48%29.71 "HgN/A
12:50 PM82 °FSunny.23 mph42%29.71 "Hg10 mi
11:50 AM82 °FSunny.23 mph42%29.71 "Hg10 mi
10:50 AM81 °FSunny.21 mph45%29.74 "Hg10 mi
9:50 AM77 °FSunny.18 mph47%29.74 "Hg10 mi
8:50 AM77 °FSunny.20 mph42%29.74 "Hg10 mi
7:50 AM73 °FSunny.16 mph53%29.74 "Hg10 mi
6:50 AM70 °FClear.17 mph60%29.74 "Hg10 mi
5:50 AM68 °FClear.16 mph64%29.74 "Hg10 mi
4:50 AM68 °FClear.21 mph64%29.74 "Hg10 mi
3:50 AM66 °FClear.20 mph78%29.77 "Hg10 mi
2:50 AM66 °FClear.23 mph88%29.77 "Hg10 mi
Weather by CustomWeather, © 2016

See weather overviewHow to use our weather pages